GW0552 Weather Reports


time (UTC)temp
F
wind
direction
speed
knots
gust
knots
rain 1hr
in
rain 24hr
in
rain mn
in
humidity
%
barometer
mb
20260509115212 53 128 0.0 0.0 0.00 0.00 0.00 93 1006.3
20260509114711 52 128 0.0 0.0 0.00 0.00 0.00 94 1006.3
20260509114209 52 132 0.0 0.0 0.00 0.00 0.00 94 1006.0
20260509113707 52 135 0.0 0.0 0.00 0.00 0.00 94 1005.9
20260509113204 51 148 0.9 1.7 0.00 0.00 0.00 94 1006.1
20260509112701 51 133 1.7 1.7 0.00 0.00 0.00 94 1006.1
20260509112158 51 134 0.0 0.0 0.00 0.00 0.00 94 1006.0
20260509111655 51 130 0.0 0.0 0.00 0.00 0.00 94 1005.9
20260509111151 51 129 0.0 0.0 0.00 0.00 0.00 94 1005.9
20260509110649 51 129 0.0 0.0 0.00 0.00 0.00 94 1005.9
20260509110146 50 132 0.0 0.0 0.00 0.00 0.00 94 1005.9
20260509105644 50 133 0.0 0.0 0.00 0.00 0.00 94 1005.7
20260509105141 50 128 0.0 0.0 0.00 0.00 0.00 94 1006.0
20260509104638 50 126 0.0 0.0 0.00 0.00 0.00 94 1005.8
20260509104135 50 133 0.0 0.0 0.00 0.00 0.00 94 1005.9
20260509103633 50 131 0.0 0.0 0.00 0.00 0.00 93 1005.8
20260509103130 50 130 0.0 0.0 0.00 0.00 0.00 93 1005.5
20260509102628 50 130 0.0 0.0 0.00 0.00 0.00 94 1005.4
20260509102125 50 130 0.0 0.0 0.00 0.00 0.00 94 1005.6
20260509101621 50 131 0.0 0.0 0.00 0.00 0.00 94 1005.6
20260509101118 51 131 0.0 0.0 0.00 0.00 0.00 93 1005.5
20260509100615 51 130 0.0 0.0 0.00 0.00 0.00 93 1005.6
20260509100112 51 126 0.0 0.0 0.00 0.00 0.00 93 1005.6
20260509095608 51 136 0.0 0.0 0.00 0.00 0.00 93 1005.7
20260509095106 51 134 0.0 0.0 0.00 0.00 0.00 93 1005.4
20260509094602 51 134 0.0 0.0 0.00 0.00 0.00 92 1005.7
20260509094059 51 134 0.0 0.0 0.00 0.00 0.00 93 1005.8
20260509093558 51 134 0.0 0.0 0.00 0.00 0.00 93 1005.8
20260509093055 51 133 0.0 0.0 0.00 0.00 0.00 93 1005.9
20260509092552 51 134 0.0 0.0 0.00 0.00 0.00 93 1005.7
20260509092051 51 134 0.0 0.0 0.00 0.00 0.00 92 1005.7
20260509091548 51 134 0.0 0.0 0.00 0.00 0.00 92 1006.0
20260509091044 51 134 0.0 0.0 0.00 0.00 0.00 92 1005.9
20260509090542 51 134 0.0 0.0 0.00 0.00 0.00 92 1005.9
20260509090040 51 134 0.0 0.0 0.00 0.00 0.00 92 1006.1
20260509085537 51 134 0.0 0.0 0.00 0.00 0.00 92 1006.0
20260509085032 51 134 0.0 0.0 0.00 0.00 0.00 91 1005.9
20260509084530 51 134 0.0 0.0 0.00 0.00 0.00 92 1005.7
20260509084027 51 134 0.0 0.0 0.00 0.00 0.00 92 1005.8
20260509083525 51 134 0.0 0.0 0.00 0.00 0.00 92 1005.7
20260509083021 51 134 0.0 0.0 0.00 0.00 0.00 91 1005.8
20260509082518 51 134 0.0 0.0 0.00 0.00 0.00 91 1006.1
20260509082015 51 134 0.0 0.0 0.00 0.00 0.00 91 1006.0
20260509081513 51 134 0.0 0.0 0.00 0.00 0.00 91 1006.0
20260509081009 51 134 0.0 0.0 0.00 0.00 0.00 91 1006.0
20260509080507 51 134 0.0 0.0 0.00 0.00 0.00 91 1006.1
20260509080005 51 134 0.0 0.0 0.00 0.00 0.00 91 1006.0
20260509075502 51 134 0.0 0.0 0.00 0.00 0.00 90 1006.1
20260509075000 51 134 0.0 0.0 0.00 0.00 0.00 91 1006.2
20260509074457 51 134 0.0 0.0 0.00 0.00 0.00 91 1006.2
20260509073953 51 134 0.0 0.0 0.00 0.00 0.00 91 1006.2
20260509073450 51 134 0.0 0.0 0.00 0.00 0.00 90 1006.3
20260509072946 51 134 0.0 0.0 0.00 0.00 0.00 90 1006.1
20260509072443 51 134 0.0 0.0 0.00 0.00 0.00 90 1006.2
20260509071940 51 134 0.0 0.0 0.00 0.00 0.00 90 1006.2
20260509071436 51 134 0.0 0.0 0.00 0.00 0.00 90 1006.2
20260509070934 51 134 0.0 0.0 0.00 0.00 0.00 90 1006.2
20260509070431 51 134 0.0 0.0 0.00 0.00 0.00 90 1006.3
20260509065926 51 134 0.0 0.0 0.00 0.00 0.00 89 1006.4
20260509065422 51 134 0.0 0.0 0.00 0.00 0.00 89 1006.4
20260509064919 51 134 0.0 0.0 0.00 0.00 0.00 90 1006.5
20260509064417 51 134 0.0 0.0 0.00 0.00 0.00 90 1006.4
20260509063914 51 134 0.0 0.0 0.00 0.00 0.00 90 1006.1
20260509063410 50 134 0.0 0.0 0.00 0.00 0.00 89 1006.2
20260509062907 50 134 0.0 0.0 0.00 0.00 0.00 89 1006.3
20260509062404 50 134 0.0 0.0 0.00 0.00 0.00 89 1006.3
20260509061902 50 134 0.0 0.0 0.00 0.00 0.00 89 1006.1
20260509061400 50 134 0.0 0.0 0.00 0.00 0.00 89 1006.2
20260509060856 50 133 0.0 0.0 0.00 0.00 0.00 89 1006.1
20260509060353 50 133 0.0 0.0 0.00 0.00 0.00 90 1006.2
20260509055848 50 133 0.0 0.0 0.00 0.00 0.00 89 1006.1
20260509055344 50 133 0.0 0.0 0.00 0.00 0.00 89 1006.7
20260509054841 50 134 0.0 0.0 0.00 0.00 0.00 90 1006.4
20260509054338 50 136 0.0 0.0 0.00 0.00 0.00 90 1006.3
20260509053836 50 133 0.0 0.0 0.00 0.00 0.00 88 1006.5
20260509053333 50 133 0.0 0.0 0.00 0.00 0.00 88 1006.7
20260509052832 50 133 0.0 0.0 0.00 0.00 0.00 88 1006.5
20260509052329 50 133 0.0 0.0 0.00 0.00 0.00 88 1006.7
20260509051826 50 133 0.0 0.0 0.00 0.00 0.00 88 1006.6
20260509051324 50 132 0.0 0.0 0.00 0.00 0.00 87 1006.6
20260509050820 51 132 0.0 0.0 0.00 0.00 0.00 86 1006.5
20260509050317 51 133 0.0 0.0 0.00 0.00 0.00 85 1006.7
20260509045814 51 132 0.0 0.0 0.00 0.00 0.00 85 1006.7
20260509045311 51 132 0.0 0.0 0.00 0.00 0.00 84 1006.4
20260509044808 52 132 0.0 0.0 0.00 0.00 0.00 84 1006.3
20260509044306 52 132 0.0 0.0 0.00 0.00 0.00 83 1006.5
20260509043802 52 132 0.0 0.0 0.00 0.00 0.00 83 1006.5
20260509043258 52 132 0.0 0.0 0.00 0.00 0.00 84 1006.6
20260509042754 53 133 0.0 0.0 0.00 0.00 0.00 83 1006.4
20260509042251 53 133 0.0 0.0 0.00 0.00 0.00 83 1006.3
20260509041748 53 133 0.0 0.0 0.00 0.00 0.00 83 1006.3
20260509041245 53 133 0.0 0.0 0.00 0.00 0.00 83 1006.6
20260509040743 53 133 0.0 0.0 0.00 0.00 0.00 83 1006.7
20260509040240 53 132 0.0 0.0 0.00 0.00 0.00 82 1006.7
20260509035736 53 133 0.0 0.0 0.00 0.00 0.00 82 1006.8
20260509035233 54 135 0.0 0.0 0.00 0.00 0.00 82 1006.7
20260509034730 54 135 0.0 0.0 0.00 0.00 0.00 82 1006.8
20260509034228 54 134 0.0 0.0 0.00 0.00 0.00 82 1006.9
20260509033725 54 131 0.0 0.0 0.00 0.00 0.00 82 1007.0
20260509033222 54 130 0.0 0.0 0.00 0.00 0.00 81 1006.9
20260509032719 54 130 0.0 0.0 0.00 0.00 0.00 81 1006.9
20260509032216 54 129 0.0 0.0 0.00 0.00 0.00 81 1007.1
20260509031713 54 135 0.0 0.0 0.00 0.00 0.00 81 1007.1
20260509031211 54 132 0.0 0.0 0.00 0.00 0.00 81 1007.1
20260509030709 54 133 0.0 0.0 0.00 0.00 0.00 81 1007.1
20260509030206 54 131 0.0 0.0 0.00 0.00 0.00 80 1007.3
20260509025702 54 129 0.0 0.9 0.00 0.00 0.00 80 1007.3
20260509025158 54 133 0.9 0.9 0.00 0.00 0.00 80 1007.2
20260509024653 54 134 1.7 1.7 0.00 0.00 0.00 80 1007.3
20260509024149 54 145 0.9 1.7 0.00 0.00 0.00 80 1007.5
20260509023648 54 129 1.7 1.7 0.00 0.00 0.00 80 1007.1
20260509023144 54 142 1.7 2.6 0.00 0.00 0.00 80 1007.3
20260509022640 54 137 1.7 2.6 0.00 0.00 0.00 80 1007.5
20260509022138 54 145 2.6 2.6 0.00 0.00 0.00 81 1007.5
20260509021635 54 128 0.9 1.7 0.00 0.00 0.00 79 1007.3
20260509021132 54 134 0.9 1.7 0.00 0.00 0.00 78 1007.4
20260509020630 54 135 0.9 0.9 0.00 0.00 0.00 77 1007.4
20260509020127 55 132 0.9 1.7 0.00 0.00 0.00 77 1007.5
20260509015626 55 132 0.9 0.9 0.00 0.00 0.00 76 1007.5
20260509015123 56 132 0.0 0.9 0.00 0.00 0.00 74 1007.5
20260509014619 56 132 0.9 0.9 0.00 0.00 0.00 73 1007.3
20260509014116 56 131 0.9 0.9 0.00 0.00 0.00 73 1007.4
20260509013613 57 132 0.9 0.9 0.00 0.00 0.00 72 1007.2
20260509013108 57 131 0.9 0.9 0.00 0.00 0.00 70 1007.0
20260509012605 57 132 0.9 0.9 0.00 0.00 0.00 69 1007.1
20260509012102 58 132 0.9 0.9 0.00 0.00 0.00 68 1006.9
20260509011600 58 132 0.9 0.9 0.00 0.00 0.00 67 1007.2
20260509011057 58 132 0.9 0.9 0.00 0.00 0.00 67 1006.8
20260509010555 59 132 0.9 0.9 0.00 0.00 0.00 67 1007.1
20260509010051 59 132 0.9 0.9 0.00 0.00 0.00 67 1006.9
20260509005549 59 131 0.9 0.9 0.00 0.00 0.00 67 1007.3
20260509005044 59 130 0.9 1.7 0.00 0.00 0.00 65 1006.9
20260509004541 60 132 0.9 0.9 0.00 0.00 0.00 65 1007.1
20260509004038 60 136 0.9 1.7 0.00 0.00 0.00 64 1007.2
20260509003536 60 135 0.9 0.9 0.00 0.00 0.00 64 1007.3
20260509003033 61 130 0.9 0.9 0.00 0.00 0.00 62 1007.1
20260509002531 61 129 0.9 0.9 0.00 0.00 0.00 57 1007.0
20260509002028 62 129 0.0 0.9 0.00 0.00 0.00 57 1007.2
20260509001525 62 129 0.0 0.0 0.00 0.00 0.00 57 1007.2
20260509001021 63 129 0.0 0.0 0.00 0.00 0.00 54 1007.2
20260509000520 63 123 0.0 0.0 0.00 0.00 0.00 56 1007.3
20260509000015 64 130 0.0 0.0 0.00 0.00 0.00 52 1007.1
20260508235514 65 132 0.9 0.9 0.00 0.00 0.00 51 1007.0
20260508235009 66 135 1.7 1.7 0.00 0.00 0.00 48 1007.2
20260508234507 66 138 1.7 1.7 0.00 0.00 0.00 44 1007.3
20260508234004 66 128 0.9 0.9 0.00 0.00 0.00 44 1007.2
20260508233503 67 129 0.0 0.0 0.00 0.00 0.00 45 1007.2
20260508233000 67 127 0.0 0.0 0.00 0.00 0.00 41 1007.1
20260508232457 68 136 2.6 2.6 0.00 0.00 0.00 41 1006.8
20260508231954 68 139 2.6 2.6 0.00 0.00 0.00 43 1006.7
20260508231451 68 131 2.6 4.3 0.00 0.00 0.00 39 1006.8
20260508230948 68 135 3.5 5.2 0.00 0.00 0.00 39 1006.9
20260508230444 69 136 4.3 5.2 0.00 0.00 0.00 39 1007.0
20260508225941 69 142 2.6 2.6 0.00 0.00 0.00 39 1007.1
20260508225438 69 126 4.3 7.0 0.00 0.00 0.00 39 1007.2
20260508224936 69 66 5.2 7.0 0.00 0.00 0.00 38 1007.4
20260508224433 70 104 4.3 5.2 0.00 0.00 0.00 38 1007.2
20260508223930 70 136 3.5 4.3 0.00 0.00 0.00 39 1007.5
20260508223428 70 133 3.5 6.1 0.00 0.00 0.00 40 1007.1
20260508222925 70 95 3.5 4.3 0.00 0.00 0.00 39 1007.3
20260508222423 71 139 0.9 1.7 0.00 0.00 0.00 38 1007.1
20260508221919 70 138 0.0 0.9 0.00 0.00 0.00 37 1007.1
20260508221415 71 146 3.5 4.3 0.00 0.00 0.00 41 1007.3
20260508220911 71 127 2.6 4.3 0.00 0.00 0.00 36 1007.1
20260508220408 70 114 3.5 4.3 0.00 0.00 0.00 37 1007.1
20260508215904 71 141 6.1 7.0 0.00 0.00 0.00 36 1007.0
20260508215401 71 151 3.5 4.3 0.00 0.00 0.00 36 1007.2
20260508214858 71 118 5.2 6.1 0.00 0.00 0.00 35 1007.3
20260508214355 71 137 0.0 0.0 0.00 0.00 0.00 39 1007.2
20260508213851 71 142 2.6 2.6 0.00 0.00 0.00 38 1007.1
20260508213349 72 137 5.2 6.1 0.00 0.00 0.00 36 1007.1
20260508212844 71 137 2.6 2.6 0.00 0.00 0.00 37 1007.3
20260508212341 72 138 4.3 6.1 0.00 0.00 0.00 39 1007.1
20260508211837 71 102 4.3 5.2 0.00 0.00 0.00 36 1007.2
20260508211332 71 125 6.1 7.0 0.00 0.00 0.00 37 1007.3
20260508210830 71 147 7.8 8.7 0.00 0.00 0.00 37 1007.4
20260508210327 71 136 4.3 5.2 0.00 0.00 0.00 38 1007.1
20260508205824 71 147 7.0 7.8 0.00 0.00 0.00 36 1007.4
20260508205320 71 121 4.3 6.1 0.00 0.00 0.00 35 1007.2
20260508204816 71 134 2.6 2.6 0.00 0.00 0.00 37 1007.7
20260508204314 71 125 8.7 12.2 0.00 0.00 0.00 35 1007.4
20260508203810 70 95 7.0 8.7 0.00 0.00 0.00 37 1007.9
20260508203306 71 128 3.5 4.3 0.00 0.00 0.00 42 1007.8
20260508202801 71 155 7.8 8.7 0.00 0.00 0.00 41 1007.6
20260508202259 70 121 5.2 7.0 0.00 0.00 0.00 40 1007.5
20260508201756 71 125 2.6 4.3 0.00 0.00 0.00 39 1007.7
20260508201253 71 139 3.5 5.2 0.00 0.00 0.00 38 1008.0
20260508200749 70 170 2.6 2.6 0.00 0.00 0.00 39 1007.7
20260508200246 71 123 6.1 8.7 0.00 0.00 0.00 42 1007.7
20260508195742 71 128 4.3 5.2 0.00 0.00 0.00 43 1007.6
20260508195239 70 134 2.6 2.6 0.00 0.00 0.00 42 1007.8
20260508194735 71 126 7.0 7.8 0.00 0.00 0.00 39 1008.3
20260508194232 70 133 4.3 5.2 0.00 0.00 0.00 40 1008.2
20260508193730 70 125 7.0 11.3 0.00 0.00 0.00 39 1008.3
20260508193226 70 126 5.2 6.1 0.00 0.00 0.00 43 1008.6
20260508192722 70 114 1.7 1.7 0.00 0.00 0.00 40 1008.9
20260508192220 70 135 4.3 6.1 0.00 0.00 0.00 43 1008.7
20260508191717 70 128 2.6 4.3 0.00 0.00 0.00 40 1008.7
20260508191214 70 241 3.5 5.2 0.00 0.00 0.00 44 1009.0
20260508190711 70 112 0.9 0.9 0.00 0.00 0.00 43 1009.1
20260508190207 70 126 3.5 4.3 0.00 0.00 0.00 40 1009.1
20260508185704 70 142 4.3 6.1 0.00 0.00 0.00 42 1009.3
20260508185201 70 108 3.5 4.3 0.00 0.00 0.00 41 1009.4
20260508184658 70 139 1.7 2.6 0.00 0.00 0.00 46 1009.4
20260508184155 70 116 0.9 0.9 0.00 0.00 0.00 41 1009.5
20260508183652 70 104 4.3 5.2 0.00 0.00 0.00 41 1009.8
20260508183148 69 121 4.3 6.1 0.00 0.00 0.00 40 1009.5
20260508182644 69 108 7.0 8.7 0.00 0.00 0.00 40 1009.9
20260508182141 70 71 2.6 4.3 0.00 0.00 0.00 41 1009.8
20260508181636 69 158 0.9 1.7 0.00 0.00 0.00 41 1010.0
20260508181134 69 110 4.3 6.1 0.00 0.00 0.00 40 1010.1
20260508180631 68 152 2.6 2.6 0.00 0.00 0.00 44 1010.2
20260508180127 69 135 5.2 7.0 0.00 0.00 0.00 45 1010.1
20260508175624 69 128 0.9 1.7 0.00 0.00 0.00 47 1010.5
20260508175121 69 128 1.7 2.6 0.00 0.00 0.00 40 1010.3
20260508174618 69 130 7.0 7.8 0.00 0.00 0.00 45 1010.6
20260508174115 70 207 3.5 4.3 0.00 0.00 0.00 49 1010.5
20260508173612 69 141 3.5 4.3 0.00 0.00 0.00 43 1010.7
20260508173108 70 145 1.7 1.7 0.00 0.00 0.00 47 1010.6
20260508172606 69 277 5.2 7.0 0.00 0.00 0.00 48 1010.8
20260508172102 68 244 2.6 2.6 0.00 0.00 0.00 42 1010.8
20260508171558 68 120 5.2 7.0 0.00 0.00 0.00 42 1011.2
20260508171055 68 114 2.6 2.6 0.00 0.00 0.00 44 1010.9
20260508170552 69 122 6.1 8.7 0.00 0.00 0.00 46 1011.2
20260508170049 68 159 1.7 1.7 0.00 0.00 0.00 45 1011.1
20260508165547 68 125 1.7 1.7 0.00 0.00 0.00 40 1011.4
20260508165043 67 189 5.2 7.0 0.00 0.00 0.00 48 1011.4
20260508164540 67 117 2.6 5.2 0.00 0.00 0.00 42 1011.6
20260508164037 67 91 2.6 4.3 0.00 0.00 0.00 41 1011.6
20260508163534 66 164 2.6 4.3 0.00 0.00 0.00 47 1011.7
20260508163031 67 114 7.8 9.6 0.00 0.00 0.00 42 1011.8
20260508162528 66 224 3.5 4.3 0.00 0.00 0.00 42 1011.7
20260508162025 66 177 3.5 5.2 0.00 0.00 0.00 48 1012.0
20260508161522 65 134 0.0 0.0 0.00 0.00 0.00 48 1012.0
20260508161019 65 145 3.5 4.3 0.00 0.00 0.00 47 1012.2
20260508160517 65 127 8.7 11.3 0.00 0.00 0.00 45 1012.2
20260508160014 66 118 0.0 0.0 0.00 0.00 0.00 47 1012.4
20260508155511 65 128 0.9 0.9 0.00 0.00 0.00 47 1012.4
20260508155008 65 126 3.5 5.2 0.00 0.00 0.00 46 1012.4
20260508154505 65 110 5.2 6.1 0.00 0.00 0.00 50 1012.6
20260508154002 65 124 0.9 2.6 0.00 0.00 0.00 46 1012.3
20260508153458 65 159 1.7 1.7 0.00 0.00 0.00 48 1012.6
20260508152955 64 357 2.6 6.1 0.00 0.00 0.00 47 1012.4
20260508152452 64 122 3.5 4.3 0.00 0.00 0.00 46 1012.4
20260508151948 63 304 3.5 5.2 0.00 0.00 0.00 45 1012.3
20260508151444 63 338 4.3 6.1 0.00 0.00 0.00 46 1012.5
20260508150941 63 123 2.6 2.6 0.00 0.00 0.00 45 1012.3
20260508150438 63 113 4.3 5.2 0.00 0.00 0.00 45 1012.5
20260508145933 64 130 4.3 5.2 0.00 0.00 0.00 48 1012.7
20260508145431 62 106 1.7 1.7 0.00 0.00 0.00 51 1012.6
20260508144927 62 146 0.0 0.9 0.00 0.00 0.00 51 1012.5
20260508144425 61 124 2.6 2.6 0.00 0.00 0.00 49 1012.7
20260508143922 61 141 4.3 5.2 0.00 0.00 0.00 50 1012.3
20260508143420 62 136 0.0 0.0 0.00 0.00 0.00 54 1012.8
20260508142916 61 124 1.7 1.7 0.00 0.00 0.00 53 1012.4
20260508142413 60 130 4.3 5.2 0.00 0.00 0.00 57 1012.4
20260508141909 59 148 0.9 1.7 0.00 0.00 0.00 59 1012.5
20260508141406 59 109 0.0 0.9 0.00 0.00 0.00 58 1012.6
20260508140904 58 114 4.3 5.2 0.00 0.00 0.00 58 1012.7
20260508140401 58 122 3.5 6.1 0.00 0.00 0.00 59 1012.6
20260508135856 57 71 5.2 6.1 0.00 0.00 0.00 59 1012.6
20260508135353 56 121 4.3 5.2 0.00 0.00 0.00 61 1012.6
20260508134849 56 120 6.1 7.0 0.00 0.00 0.00 60 1012.7
20260508134346 56 103 4.3 7.0 0.00 0.00 0.00 64 1012.6
20260508133843 55 135 0.9 0.9 0.00 0.00 0.00 65 1012.6
20260508133341 55 133 2.6 2.6 0.00 0.00 0.00 69 1012.7
20260508132837 54 109 1.7 1.7 0.00 0.00 0.00 75 1012.7
20260508132335 53 131 0.9 0.9 0.00 0.00 0.00 76 1012.9
20260508131832 53 120 0.0 0.0 0.00 0.00 0.00 83 1012.7
20260508131327 52 109 1.7 1.7 0.00 0.00 0.00 81 1012.9
20260508130824 51 117 0.0 0.0 0.00 0.00 0.00 86 1012.9
20260508130321 49 119 0.9 1.7 0.00 0.00 0.00 85 1012.9
20260508125817 47 121 1.7 1.7 0.00 0.00 0.00 88 1012.8
20260508125314 46 126 0.0 0.0 0.00 0.00 0.00 98 1012.7
20260508124812 44 125 0.0 0.9 0.00 0.00 0.00 99 1012.7
20260508124308 42 125 0.0 0.0 0.00 0.00 0.00 99 1012.8
20260508123807 41 127 0.0 0.0 0.00 0.00 0.00 99 1012.8
20260508123305 41 123 0.0 0.0 0.00 0.00 0.00 99 1013.0
20260508122801 40 126 0.0 0.0 0.00 0.00 0.00 99 1012.9
20260508122258 39 126 0.0 0.0 0.00 0.00 0.00 99 1012.7
20260508121755 39 126 0.0 0.0 0.00 0.00 0.00 99 1012.8
20260508121253 38 126 0.0 0.0 0.00 0.00 0.00 99 1012.9
20260508120750 37 126 0.0 0.0 0.00 0.00 0.00 99 1012.8
20260508120248 36 129 0.0 0.0 0.00 0.00 0.00 99 1012.7
20260508115746 36 129 0.0 0.0 0.00 0.00 0.00 99 1012.6